EDW22S LSZH-MDPP

Flight info

Callsign EDW22S
Flight time N/A
Altitude 34000
Route VEBIT T10 TORPA DCT REKLA DCT RLP DCT ROTSI/N0485F360 DCT AMODO DCT COHPA UM729 RESMI UN491 LGL UN502 JSY DCT LIZAD DCT ARKIL/M085F360 DCT DINIM/M085F380 DCT 51N020W 50N030W 49N040W 48N050W DCT NICSO DCT LOMPI DCT JEBBY/M085F400 DCT SELIM DCT BDA DCT GECAL DCT MLLER/N0490F400 DCT MNDEZ DCT SEKAR SEKAR3S
Aircraft A359/H-SDE2E3GHIJ1J3J4J5LM1ORWXY/LB1D1

Departure

Time N/A
Airport Zürich Airport (LSZH)

Arrival

Time 2026-04-30 08:35
Airport Gregorio Luperon International Airport (MDPP)
Time Latitude Longitude Altitude Speed Heading
2026-04-30 06:46 30.88531 -65.06347 39921 ft 474 kts 198°
2026-04-30 06:46 30.82105 -65.07944 39931 ft 474 kts 198°
2026-04-30 06:47 30.75658 -65.09544 39928 ft 474 kts 198°
2026-04-30 06:47 30.69202 -65.11145 39939 ft 474 kts 198°
2026-04-30 06:48 30.62755 -65.12741 39930 ft 474 kts 197°
2026-04-30 06:48 30.56292 -65.14339 39935 ft 475 kts 197°
2026-04-30 06:49 30.49822 -65.15937 39935 ft 475 kts 197°
2026-04-30 06:49 30.43385 -65.17523 39939 ft 475 kts 197°
2026-04-30 06:50 30.36913 -65.19117 39936 ft 476 kts 197°
2026-04-30 06:50 30.30433 -65.20711 39939 ft 476 kts 197°
2026-04-30 06:51 30.23945 -65.22303 39941 ft 476 kts 197°
2026-04-30 06:51 30.17471 -65.23891 39940 ft 476 kts 197°
2026-04-30 06:52 30.10974 -65.25482 39939 ft 476 kts 197°
2026-04-30 06:52 30.04497 -65.27069 39946 ft 476 kts 197°
2026-04-30 06:53 29.98052 -65.28644 39944 ft 476 kts 196°
2026-04-30 06:53 29.91568 -65.30222 39935 ft 476 kts 197°
2026-04-30 06:54 29.85079 -65.31802 39951 ft 477 kts 196°
2026-04-30 06:54 29.78579 -65.33383 39947 ft 478 kts 196°
2026-04-30 06:55 29.72079 -65.34962 39958 ft 478 kts 196°
2026-04-30 06:55 29.65564 -65.36543 39952 ft 478 kts 196°
2026-04-30 06:56 29.59040 -65.38125 39953 ft 480 kts 196°
2026-04-30 06:56 29.52486 -65.39711 39953 ft 481 kts 196°
2026-04-30 06:57 29.45934 -65.41295 39952 ft 481 kts 196°
2026-04-30 06:57 29.39644 -65.43693 39949 ft 474 kts 208°
2026-04-30 06:58 29.33695 -65.46824 39956 ft 474 kts 209°
2026-04-30 06:58 29.27751 -65.50082 39954 ft 474 kts 210°
2026-04-30 06:59 29.21794 -65.53341 39955 ft 474 kts 209°
2026-04-30 06:59 29.15820 -65.56584 39950 ft 474 kts 209°
2026-04-30 07:00 29.09840 -65.59817 39958 ft 475 kts 209°
2026-04-30 07:00 29.03871 -65.63040 39963 ft 475 kts 209°
2026-04-30 07:01 28.97889 -65.66266 39962 ft 476 kts 209°
2026-04-30 07:01 28.91898 -65.69492 39958 ft 476 kts 209°
2026-04-30 07:02 28.85946 -65.72694 39960 ft 476 kts 209°
2026-04-30 07:02 28.80918 -65.75396 39961 ft 476 kts 209°
2026-04-30 07:03 28.73941 -65.79139 39961 ft 476 kts 209°
2026-04-30 07:03 28.68916 -65.81832 39960 ft 477 kts 209°
2026-04-30 07:04 28.62945 -65.85029 39964 ft 477 kts 209°
2026-04-30 07:04 28.56924 -65.88248 39960 ft 478 kts 209°
2026-04-30 07:05 28.47902 -65.93064 39962 ft 478 kts 209°
2026-04-30 07:05 28.41866 -65.96281 39960 ft 478 kts 209°
2026-04-30 07:06 28.35878 -65.99468 39962 ft 478 kts 209°
2026-04-30 07:06 28.29848 -66.02674 39962 ft 479 kts 209°
2026-04-30 07:07 28.23822 -66.05872 39962 ft 478 kts 209°
2026-04-30 07:07 28.17785 -66.09074 39964 ft 479 kts 208°
2026-04-30 07:08 28.11739 -66.12276 39967 ft 479 kts 208°
2026-04-30 07:08 28.05698 -66.15472 39966 ft 480 kts 208°
2026-04-30 07:09 27.99650 -66.18666 39964 ft 480 kts 208°
2026-04-30 07:09 27.93631 -66.21842 39958 ft 479 kts 208°
2026-04-30 07:10 27.87589 -66.25026 39966 ft 478 kts 208°
2026-04-30 07:10 27.81536 -66.28212 39969 ft 480 kts 208°
2026-04-30 07:11 27.75482 -66.31395 39971 ft 480 kts 208°
2026-04-30 07:11 27.69412 -66.34582 39962 ft 480 kts 208°
2026-04-30 07:12 27.63352 -66.37759 39974 ft 479 kts 208°
2026-04-30 07:12 27.57354 -66.40900 39974 ft 479 kts 208°
2026-04-30 07:13 27.51311 -66.44062 39974 ft 479 kts 208°
2026-04-30 07:13 27.45266 -66.47220 39961 ft 479 kts 208°
2026-04-30 07:14 27.39235 -66.50366 39973 ft 475 kts 208°
2026-04-30 07:14 27.33243 -66.53489 39976 ft 474 kts 208°
2026-04-30 07:15 27.27262 -66.56603 39976 ft 474 kts 208°
2026-04-30 07:15 27.21278 -66.59716 39977 ft 476 kts 208°
2026-04-30 07:16 27.15259 -66.62842 39975 ft 474 kts 208°
2026-04-30 07:16 27.09275 -66.65945 39975 ft 473 kts 208°
2026-04-30 07:17 27.03333 -66.69023 39976 ft 473 kts 208°
2026-04-30 07:18 26.94373 -66.73660 39965 ft 473 kts 208°
2026-04-30 07:18 26.88421 -66.76733 39983 ft 470 kts 208°
2026-04-30 07:19 26.82483 -66.79797 39981 ft 468 kts 208°
2026-04-30 07:19 26.76604 -66.82827 39986 ft 468 kts 208°
2026-04-30 07:20 26.70675 -66.85880 39983 ft 468 kts 208°
2026-04-30 07:20 26.64756 -66.88923 39981 ft 466 kts 209°
2026-04-30 07:21 26.58869 -66.91947 39986 ft 466 kts 209°
2026-04-30 07:21 26.52961 -66.94980 39986 ft 468 kts 208°
2026-04-30 07:22 26.44089 -66.99525 39987 ft 468 kts 208°
2026-04-30 07:22 26.38184 -67.02544 39982 ft 464 kts 209°
2026-04-30 07:23 26.32330 -67.05533 39979 ft 461 kts 209°
2026-04-30 07:23 26.26501 -67.08509 39985 ft 461 kts 209°
2026-04-30 07:24 26.20714 -67.11462 39991 ft 461 kts 209°
2026-04-30 07:24 26.14876 -67.14436 39987 ft 460 kts 210°
2026-04-30 07:25 26.09069 -67.17389 39986 ft 458 kts 210°
2026-04-30 07:25 26.03273 -67.20334 39987 ft 457 kts 210°
2026-04-30 07:26 25.97483 -67.23275 39986 ft 458 kts 209°
2026-04-30 07:26 25.91683 -67.26217 39985 ft 460 kts 209°
2026-04-30 07:27 25.85860 -67.29167 39988 ft 460 kts 209°
2026-04-30 07:27 25.80029 -67.32117 39987 ft 460 kts 209°
2026-04-30 07:28 25.74209 -67.35058 39986 ft 460 kts 209°
2026-04-30 07:28 25.68389 -67.37996 39987 ft 460 kts 209°
2026-04-30 07:29 25.62561 -67.40935 39980 ft 459 kts 210°
2026-04-30 07:29 25.56795 -67.43838 39990 ft 456 kts 210°
2026-04-30 07:30 25.48141 -67.48193 39991 ft 455 kts 210°
2026-04-30 07:31 25.42366 -67.51096 39990 ft 455 kts 210°
2026-04-30 07:31 25.36599 -67.53991 39978 ft 455 kts 210°
2026-04-30 07:32 25.30827 -67.56885 39990 ft 455 kts 210°
2026-04-30 07:32 25.25052 -67.59778 39990 ft 455 kts 210°
2026-04-30 07:33 25.19277 -67.62668 39994 ft 456 kts 210°
2026-04-30 07:33 25.13506 -67.65552 39993 ft 456 kts 210°
2026-04-30 07:34 25.07762 -67.68420 39990 ft 454 kts 210°
2026-04-30 07:34 25.02019 -67.71283 39993 ft 452 kts 210°
2026-04-30 07:35 24.96302 -67.74133 39993 ft 452 kts 210°
2026-04-30 07:35 24.90565 -67.76990 39993 ft 452 kts 210°
2026-04-30 07:36 24.84833 -67.79841 39993 ft 452 kts 210°
2026-04-30 07:36 24.79112 -67.82682 39995 ft 451 kts 210°
2026-04-30 07:37 24.73392 -67.85520 39996 ft 450 kts 210°
2026-04-30 07:37 24.67709 -67.88337 39996 ft 450 kts 210°
2026-04-30 07:38 24.61997 -67.91167 39996 ft 450 kts 210°
2026-04-30 07:38 24.56286 -67.93993 39979 ft 450 kts 210°
2026-04-30 07:39 24.50572 -67.96817 39995 ft 449 kts 211°
2026-04-30 07:39 24.44863 -67.99636 39997 ft 449 kts 211°
2026-04-30 07:40 24.39160 -68.02449 39996 ft 449 kts 211°
2026-04-30 07:40 24.33454 -68.05261 39996 ft 449 kts 210°
2026-04-30 07:41 24.27747 -68.08071 39994 ft 449 kts 211°
2026-04-30 07:41 24.22049 -68.10873 39999 ft 449 kts 211°
2026-04-30 07:42 24.16351 -68.13672 39989 ft 448 kts 211°
2026-04-30 07:42 24.10661 -68.16466 39994 ft 449 kts 211°
2026-04-30 07:43 24.04959 -68.19262 40000 ft 449 kts 211°
2026-04-30 07:43 23.99291 -68.22040 39990 ft 450 kts 211°
2026-04-30 07:44 23.93968 -68.25429 39990 ft 438 kts 223°
2026-04-30 07:44 23.89736 -68.30110 39990 ft 430 kts 234°
2026-04-30 07:45 23.86041 -68.35241 39991 ft 430 kts 236°
2026-04-30 07:45 23.82412 -68.40435 39992 ft 430 kts 236°
2026-04-30 07:46 23.78767 -68.45617 39989 ft 430 kts 236°
2026-04-30 07:46 23.75102 -68.50783 39980 ft 430 kts 236°
2026-04-30 07:47 23.71426 -68.55948 39990 ft 430 kts 236°
2026-04-30 07:47 23.67774 -68.61073 39990 ft 431 kts 236°
2026-04-30 07:48 23.64084 -68.66248 39990 ft 431 kts 236°
2026-04-30 07:48 23.60398 -68.71412 39987 ft 431 kts 236°
2026-04-30 07:49 23.55998 -68.75930 39996 ft 442 kts 219°
2026-04-30 07:49 23.50754 -68.79505 39982 ft 445 kts 217°
2026-04-30 07:50 23.45496 -68.82999 39987 ft 445 kts 217°
2026-04-30 07:50 23.40202 -68.86510 39994 ft 445 kts 217°
2026-04-30 07:51 23.34909 -68.90018 39987 ft 446 kts 217°
2026-04-30 07:51 23.30492 -68.92942 39988 ft 447 kts 217°
2026-04-30 07:52 23.25170 -68.96463 39987 ft 447 kts 217°
2026-04-30 07:52 23.19862 -68.99971 39988 ft 447 kts 217°
2026-04-30 07:53 23.14546 -69.03481 39981 ft 447 kts 217°
2026-04-30 07:53 23.09230 -69.06988 39979 ft 447 kts 217°
2026-04-30 07:54 23.03912 -69.10492 39981 ft 447 kts 217°
2026-04-30 07:54 22.98592 -69.13995 39982 ft 447 kts 217°
2026-04-30 07:55 22.93304 -69.17474 39980 ft 447 kts 217°
2026-04-30 07:55 22.87964 -69.20983 39980 ft 446 kts 217°
2026-04-30 07:56 22.82678 -69.24455 39977 ft 448 kts 217°
2026-04-30 07:56 22.77352 -69.27948 39983 ft 448 kts 217°
2026-04-30 07:57 22.72016 -69.31445 39979 ft 448 kts 217°
2026-04-30 07:57 22.66685 -69.34935 39961 ft 448 kts 217°
2026-04-30 07:58 22.61363 -69.38417 39974 ft 447 kts 217°
2026-04-30 07:58 22.56049 -69.41890 39974 ft 446 kts 217°
2026-04-30 07:59 22.50722 -69.45369 39973 ft 446 kts 217°
2026-04-30 07:59 22.45446 -69.48811 39972 ft 446 kts 217°
2026-04-30 08:00 22.37431 -69.54034 39967 ft 446 kts 217°
2026-04-30 08:00 22.32119 -69.57491 39968 ft 446 kts 217°
2026-04-30 08:01 22.26836 -69.60927 39961 ft 446 kts 217°
2026-04-30 08:01 22.21521 -69.64381 39963 ft 446 kts 217°
2026-04-30 08:02 22.13538 -69.69562 39962 ft 446 kts 217°
2026-04-30 08:03 22.02926 -69.76438 39967 ft 443 kts 217°
2026-04-30 08:04 21.97636 -69.79861 39965 ft 443 kts 217°
2026-04-30 08:04 21.92352 -69.83279 39968 ft 443 kts 217°
2026-04-30 08:05 21.87062 -69.86696 39971 ft 443 kts 217°
2026-04-30 08:05 21.81762 -69.90118 39955 ft 444 kts 217°
2026-04-30 08:06 21.76471 -69.93529 39967 ft 442 kts 217°
2026-04-30 08:06 21.71198 -69.96927 39963 ft 442 kts 217°
2026-04-30 08:07 21.65912 -70.00330 39920 ft 442 kts 217°
2026-04-30 08:07 21.63310 -70.02003 39708 ft 441 kts 217°
2026-04-30 08:07 21.60677 -70.03696 39486 ft 440 kts 217°
2026-04-30 08:07 21.58047 -70.05387 39245 ft 440 kts 217°
2026-04-30 08:08 21.55423 -70.07073 39012 ft 440 kts 217°
2026-04-30 08:08 21.52806 -70.08753 38577 ft 436 kts 217°
2026-04-30 08:08 21.50202 -70.10424 37904 ft 435 kts 217°
2026-04-30 08:08 21.47610 -70.12087 37242 ft 434 kts 217°
2026-04-30 08:09 21.45021 -70.13748 36574 ft 433 kts 217°
2026-04-30 08:09 21.42438 -70.15405 35907 ft 433 kts 217°
2026-04-30 08:09 21.39849 -70.17065 35206 ft 434 kts 217°
2026-04-30 08:09 21.37253 -70.18730 34464 ft 436 kts 217°
2026-04-30 08:10 21.34632 -70.20410 33623 ft 440 kts 217°
2026-04-30 08:10 21.31995 -70.22099 32779 ft 442 kts 216°
2026-04-30 08:10 21.29361 -70.23782 32237 ft 438 kts 216°
2026-04-30 08:10 21.26747 -70.25452 31654 ft 435 kts 216°
2026-04-30 08:11 21.24154 -70.27109 31059 ft 433 kts 216°
2026-04-30 08:11 21.21573 -70.28757 30491 ft 430 kts 216°
2026-04-30 08:11 21.19008 -70.30396 29901 ft 428 kts 216°
2026-04-30 08:11 21.16457 -70.32025 29265 ft 425 kts 216°
2026-04-30 08:12 21.13927 -70.33639 28701 ft 421 kts 216°
2026-04-30 08:12 21.11452 -70.35218 28153 ft 418 kts 216°
2026-04-30 08:12 21.08956 -70.36809 27591 ft 414 kts 216°
2026-04-30 08:12 21.06497 -70.38377 27038 ft 411 kts 215°
2026-04-30 08:13 21.04036 -70.39946 26482 ft 408 kts 215°
2026-04-30 08:13 21.01604 -70.41495 25934 ft 405 kts 215°
2026-04-30 08:13 20.99191 -70.43032 25382 ft 403 kts 215°
2026-04-30 08:13 20.96788 -70.44562 24831 ft 401 kts 215°
2026-04-30 08:14 20.94390 -70.46089 24277 ft 399 kts 214°
2026-04-30 08:14 20.92036 -70.47587 23730 ft 398 kts 214°
2026-04-30 08:14 20.89633 -70.49115 23091 ft 396 kts 214°
2026-04-30 08:14 20.87278 -70.50611 22508 ft 393 kts 214°
2026-04-30 08:15 20.84928 -70.52103 21963 ft 390 kts 214°
2026-04-30 08:15 20.82632 -70.53561 21383 ft 388 kts 214°
2026-04-30 08:15 20.80323 -70.55028 20831 ft 386 kts 214°
2026-04-30 08:15 20.78016 -70.56492 20265 ft 384 kts 214°
2026-04-30 08:16 20.75693 -70.57966 19683 ft 383 kts 214°
2026-04-30 08:16 20.73441 -70.59395 19117 ft 381 kts 213°
2026-04-30 08:16 20.71164 -70.60838 18551 ft 379 kts 213°
2026-04-30 08:16 20.68904 -70.62271 17956 ft 377 kts 213°
2026-04-30 08:17 20.66654 -70.63696 17348 ft 375 kts 213°
2026-04-30 08:17 20.64421 -70.65110 16780 ft 372 kts 213°
2026-04-30 08:17 20.62200 -70.66516 16222 ft 370 kts 213°
2026-04-30 08:17 20.59998 -70.67910 15658 ft 368 kts 213°
2026-04-30 08:18 20.57798 -70.69302 15102 ft 366 kts 213°
2026-04-30 08:18 20.55615 -70.70683 14549 ft 364 kts 213°
2026-04-30 08:18 20.53540 -70.71995 14020 ft 363 kts 212°
2026-04-30 08:18 20.51393 -70.73351 13768 ft 352 kts 212°
2026-04-30 08:19 20.49332 -70.74652 13637 ft 337 kts 212°
2026-04-30 08:19 20.47358 -70.75897 13500 ft 323 kts 213°
2026-04-30 08:19 20.45465 -70.77092 13358 ft 309 kts 213°
2026-04-30 08:19 20.43649 -70.78238 13216 ft 297 kts 213°
2026-04-30 08:20 20.41820 -70.79241 12888 ft 295 kts 202°
2026-04-30 08:20 20.39812 -70.79638 12431 ft 300 kts 186°
2026-04-30 08:20 20.37701 -70.79740 12025 ft 300 kts 185°
2026-04-30 08:20 20.35653 -70.79825 11653 ft 298 kts 185°
2026-04-30 08:21 20.33581 -70.79919 11303 ft 296 kts 185°
2026-04-30 08:21 20.31525 -70.80017 10950 ft 295 kts 185°
2026-04-30 08:21 20.29478 -70.80117 10588 ft 294 kts 185°
2026-04-30 08:21 20.27437 -70.80218 10237 ft 292 kts 184°
2026-04-30 08:22 20.25411 -70.80319 9897 ft 291 kts 184°
2026-04-30 08:22 20.23383 -70.80421 9511 ft 292 kts 184°
2026-04-30 08:22 20.21346 -70.80523 9150 ft 292 kts 184°
2026-04-30 08:22 20.19326 -70.80625 8794 ft 290 kts 184°
2026-04-30 08:23 20.17318 -70.80726 8439 ft 287 kts 184°
2026-04-30 08:23 20.15325 -70.80826 8087 ft 286 kts 183°
2026-04-30 08:23 20.13345 -70.80925 7737 ft 284 kts 183°
2026-04-30 08:23 20.11375 -70.81024 7374 ft 282 kts 183°
2026-04-30 08:24 20.09436 -70.81122 7145 ft 274 kts 182°
2026-04-30 08:24 20.07600 -70.81214 7018 ft 262 kts 182°
2026-04-30 08:24 20.05824 -70.81303 6888 ft 250 kts 182°
2026-04-30 08:24 20.04100 -70.81390 6652 ft 246 kts 182°
2026-04-30 08:25 20.02397 -70.81475 6355 ft 245 kts 182°
2026-04-30 08:25 20.00698 -70.81561 6041 ft 243 kts 182°
2026-04-30 08:25 19.99013 -70.81649 5717 ft 243 kts 182°
2026-04-30 08:25 19.97324 -70.81734 5369 ft 242 kts 181°
2026-04-30 08:26 19.95653 -70.81815 5079 ft 240 kts 181°
2026-04-30 08:26 19.93987 -70.81898 4877 ft 239 kts 180°
2026-04-30 08:26 19.92324 -70.81979 4755 ft 239 kts 180°
2026-04-30 08:26 19.90665 -70.82062 4633 ft 239 kts 180°
2026-04-30 08:27 19.89007 -70.82144 4501 ft 236 kts 180°
2026-04-30 08:27 19.87403 -70.82227 4382 ft 228 kts 180°
2026-04-30 08:27 19.85824 -70.82310 4253 ft 226 kts 180°
2026-04-30 08:27 19.84250 -70.82386 4215 ft 226 kts 180°
2026-04-30 08:28 19.82678 -70.82462 4157 ft 226 kts 180°
2026-04-30 08:28 19.81133 -70.82537 4117 ft 226 kts 180°
2026-04-30 08:28 19.79553 -70.82615 4073 ft 226 kts 180°
2026-04-30 08:28 19.77980 -70.82693 4034 ft 226 kts 180°
2026-04-30 08:29 19.76441 -70.82769 3993 ft 226 kts 180°
2026-04-30 08:29 19.74855 -70.82668 3982 ft 224 kts 166°
2026-04-30 08:29 19.73349 -70.82231 3984 ft 223 kts 161°
2026-04-30 08:29 19.71870 -70.81740 3980 ft 222 kts 160°
2026-04-30 08:30 19.70488 -70.81131 3950 ft 206 kts 142°
2026-04-30 08:30 19.69774 -70.79950 3929 ft 186 kts 103°
2026-04-30 08:30 19.69698 -70.78613 3727 ft 181 kts 83°
2026-04-30 08:30 19.69997 -70.77333 3531 ft 178 kts 74°
2026-04-30 08:31 19.70345 -70.76083 3372 ft 175 kts 76°
2026-04-30 08:31 19.70682 -70.74835 3186 ft 176 kts 74°
2026-04-30 08:31 19.71037 -70.73593 2939 ft 175 kts 74°
2026-04-30 08:31 19.71391 -70.72357 2710 ft 175 kts 75°
2026-04-30 08:32 19.71742 -70.71124 2469 ft 174 kts 74°
2026-04-30 08:32 19.72085 -70.69920 2236 ft 172 kts 75°
2026-04-30 08:32 19.72436 -70.68694 2020 ft 172 kts 74°
2026-04-30 08:32 19.72781 -70.67487 1766 ft 173 kts 74°
2026-04-30 08:33 19.73134 -70.66256 1539 ft 170 kts 74°
2026-04-30 08:33 19.73464 -70.65104 1348 ft 160 kts 75°
2026-04-30 08:33 19.73777 -70.64011 1124 ft 150 kts 74°
2026-04-30 08:33 19.74070 -70.62980 907 ft 142 kts 74°
2026-04-30 08:34 19.74358 -70.62008 760 ft 134 kts 75°
2026-04-30 08:34 19.74639 -70.61048 631 ft 139 kts 75°
2026-04-30 08:34 19.74919 -70.60040 402 ft 146 kts 70°
2026-04-30 08:34 19.75214 -70.59008 225 ft 144 kts 76°
2026-04-30 08:35 19.75508 -70.57991 49 ft 143 kts 74°
2026-04-30 08:35 19.75757 -70.57092 41 ft 97 kts 73°
2026-04-30 08:35 19.75874 -70.56682 43 ft 38 kts 73°
2026-04-30 08:35 19.75933 -70.56483 42 ft 9 kts 71°
2026-04-30 08:36 19.75925 -70.56443 41 ft 4 kts 140°
2026-04-30 08:36 19.75894 -70.56426 43 ft 7 kts 156°
2026-04-30 08:36 19.75839 -70.56406 42 ft 10 kts 162°
2026-04-30 08:36 19.75783 -70.56387 41 ft 9 kts 162°
2026-04-30 08:37 19.75738 -70.56374 42 ft 7 kts 169°
2026-04-30 08:37 19.75706 -70.56379 41 ft 8 kts 193°
2026-04-30 08:37 19.75654 -70.56402 41 ft 4 kts 206°
2026-04-30 08:37 19.75631 -70.56414 41 ft 0 kts 207°